Grand Marais, MN

1:32 PM CST on February 21, 2017 (GMT -0600)
Grand Marais-Cook County

Weather History for KCKC - May, 2013

Change the Weather History Date:

Monday, May 6, 2013

  Actual Average Record
Temperature  
Mean Temperature 45 °F -  
Max Temperature 62 °F 53 °F 87 °F (2016)
Min Temperature 28 °F 33 °F 24 °F (2006)
Degree Days  
Heating Degree Days 20    
Moisture  
Dew Point 36 °F    
Average Humidity 68    
Maximum Humidity 93    
Minimum Humidity 42    
Precipitation  
Precipitation 0.00 in - - ()
Sea Level Pressure  
Sea Level Pressure 30.10 in    
Wind  
Wind Speed 3 mph (SSW)    
Max Wind Speed 8 mph    
Max Gust Speed -    
Visibility 8 miles    
Events Fog    
Averages and records for this station are not official NWS values.
T = Trace of Precipitation, MM = Missing Value Source: NWS Daily Summary

Daily Weather History Graph

Daily Weather History Graph

Search for Another Location

Airport or City:

Trip Planner

Search our weather history database for the weather conditions in past years. The results will help you decide how hot, cold, wet, or windy it might be!

Date:

Astronomy

May. 06, 2013 Rise Set
Actual Time 5:35 AM CDT 8:21 PM CDT
Civil Twilight 5:00 AM CDT 8:57 PM CDT
Nautical Twilight 4:15 AM CDT 9:42 PM CDT
Astronomical Twilight 3:21 AM CDT 10:36 PM CDT
Moon 3:52 AM CDT (5/6) 5:09 PM CDT (5/6)
Length of Visible Light 15h 57m
Length of Day
14h 46m
Waning Crescent, 11% of the Moon is Illuminated
May 6
Waning Crescent
May 9
New
May 17
First Quarter
May 24
Full
May 31
Last Quarter

Hourly Weather History & Observations

Time (CDT) Temp. Windchill Dew Point Humidity Pressure Visibility Wind Dir Wind Speed Gust Speed Precip Events Conditions
12:14 AM 37.4 °F - 33.8 °F 87% 30.13 in 10.0 mi Calm Calm - N/A   Clear
12:33 AM 33.8 °F 30.8 °F 30.2 °F 87% 30.12 in 10.0 mi NNW 3.5 mph - N/A   Clear
12:54 AM 35.6 °F 32.8 °F 33.8 °F 93% 30.12 in 10.0 mi NNW 3.5 mph - N/A   Clear
1:33 AM 33.8 °F 30.8 °F 30.2 °F 87% 30.12 in 10.0 mi North 3.5 mph - N/A   Clear
1:54 AM 35.6 °F - 32.0 °F 87% 30.12 in 10.0 mi Calm Calm - N/A   Clear
2:14 AM 32.0 °F - 28.4 °F 87% 30.12 in 10.0 mi Calm Calm - N/A   Clear
2:33 AM 32.0 °F - 28.4 °F 87% 30.12 in 0.8 mi Calm Calm - N/A   Mist
2:53 AM 32.0 °F - 30.2 °F 93% 30.12 in 1.2 mi Calm Calm - N/A   Mist
3:14 AM 30.2 °F 24.3 °F 26.6 °F 86% 30.12 in 3.0 mi NNW 5.8 mph - N/A   Clear
3:34 AM 32.0 °F - 28.4 °F 87% 30.11 in 1.0 mi Calm Calm - N/A   Mist
3:54 AM 32.0 °F - 28.4 °F 87% 30.12 in 1.0 mi Calm Calm - N/A   Mostly Cloudy
4:13 AM 30.2 °F - 26.6 °F 86% 30.12 in 0.8 mi Calm Calm - N/A   Mostly Cloudy
4:33 AM 30.2 °F 26.7 °F 28.4 °F 93% 30.12 in 2.0 mi NNW 3.5 mph - N/A   Mostly Cloudy
4:54 AM 30.2 °F - 28.4 °F 93% 30.12 in 1.0 mi Calm Calm - N/A   Mist
5:14 AM 32.0 °F - 30.2 °F 93% 30.12 in 1.0 mi Calm Calm - N/A   Mist
5:34 AM 30.2 °F - 28.4 °F 93% 30.12 in 1.0 mi Calm Calm - N/A   Mist
5:54 AM 28.4 °F - 26.6 °F 93% 30.12 in 1.2 mi Calm Calm - N/A   Mostly Cloudy
6:13 AM 30.2 °F - 26.6 °F 86% 30.12 in 0.5 mi Calm Calm - N/A Fog Light Freezing Fog
6:33 AM 30.2 °F - 28.4 °F 93% 30.12 in 7.0 mi Calm Calm - N/A   Clear
6:54 AM 33.8 °F - 30.2 °F 87% 30.12 in 10.0 mi Calm Calm - N/A   Clear
7:13 AM 37.4 °F - 33.8 °F 87% 30.12 in 10.0 mi Calm Calm - N/A   Clear
7:34 AM 42.8 °F - 37.4 °F 81% 30.13 in 10.0 mi Calm Calm - N/A   Clear
7:53 AM 44.6 °F - 37.4 °F 76% 30.13 in 10.0 mi Calm Calm - N/A   Clear
8:13 AM 46.4 °F 45.2 °F 37.4 °F 71% 30.13 in 10.0 mi SSW 3.5 mph - N/A   Clear
8:34 AM 46.4 °F 43.5 °F 35.6 °F 66% 30.13 in 10.0 mi SSW 5.8 mph - N/A   Clear
8:54 AM 48.2 °F - 37.4 °F 66% 30.13 in 10.0 mi South 4.6 mph - N/A   Clear
9:13 AM 50.0 °F - 37.4 °F 62% 30.13 in 10.0 mi SSW 4.6 mph - N/A   Clear
9:33 AM 51.8 °F - 37.4 °F 58% 30.12 in 10.0 mi SSW 3.5 mph - N/A   Clear
9:54 AM 53.6 °F - 39.2 °F 58% 30.12 in 10.0 mi SSW 3.5 mph - N/A   Clear
10:13 AM 55.4 °F - 39.2 °F 54% 30.12 in 10.0 mi Calm Calm - N/A   Clear
10:34 AM 55.4 °F - 39.2 °F 54% 30.12 in 10.0 mi SW 5.8 mph - N/A   Clear
10:53 AM 57.2 °F - 39.2 °F 51% 30.11 in 5.0 mi SSW 6.9 mph - N/A   Haze
11:14 AM 57.2 °F - 41.0 °F 55% 30.11 in 10.0 mi South 5.8 mph - N/A   Clear
11:33 AM 59.0 °F - 39.2 °F 48% 30.11 in 10.0 mi SSE 6.9 mph - N/A   Clear
11:54 AM 57.2 °F - 39.2 °F 51% 30.11 in 10.0 mi South 6.9 mph - N/A   Clear
12:13 PM 59.0 °F - 39.2 °F 48% 30.10 in 10.0 mi SE 6.9 mph - N/A   Clear
12:34 PM 59.0 °F - 39.2 °F 48% 30.10 in 10.0 mi SE 4.6 mph - N/A   Clear
12:53 PM 59.0 °F - 39.2 °F 48% 30.10 in 10.0 mi SSE 8.1 mph - N/A   Clear
1:14 PM 59.0 °F - 39.2 °F 48% 30.10 in 10.0 mi SE 4.6 mph - N/A   Clear
1:33 PM 57.2 °F - 39.2 °F 51% 30.09 in 10.0 mi South 5.8 mph - N/A   Clear
1:54 PM 57.2 °F - 39.2 °F 51% 30.09 in 10.0 mi SSE 8.1 mph - N/A   Clear
2:13 PM 57.2 °F - 39.2 °F 51% 30.09 in 10.0 mi South 6.9 mph - N/A   Clear
2:33 PM 59.0 °F - 39.2 °F 48% 30.09 in 10.0 mi South 3.5 mph - N/A   Clear
2:54 PM 59.0 °F - 39.2 °F 48% 30.08 in 10.0 mi South 5.8 mph - N/A   Clear
3:13 PM 60.8 °F - 39.2 °F 45% 30.08 in 10.0 mi South 3.5 mph - N/A   Clear
3:33 PM 62.6 °F - 39.2 °F 42% 30.07 in 10.0 mi SSE 4.6 mph - N/A   Clear
3:54 PM 62.6 °F - 41.0 °F 45% 30.07 in 10.0 mi South 5.8 mph - N/A   Clear
4:13 PM 62.6 °F - 41.0 °F 45% 30.06 in 10.0 mi SW 6.9 mph - N/A   Clear
4:33 PM 62.6 °F - 41.0 °F 45% 30.06 in 10.0 mi SSW 5.8 mph - N/A   Clear
4:54 PM 62.6 °F - 41.0 °F 45% 30.06 in 10.0 mi SW 6.9 mph - N/A   Clear
5:13 PM 62.6 °F - 41.0 °F 45% 30.06 in 10.0 mi South 5.8 mph - N/A   Clear
5:53 PM 60.8 °F - 41.0 °F 48% 30.06 in 10.0 mi SSW 6.9 mph - N/A   Clear
6:13 PM 60.8 °F - 41.0 °F 48% 30.06 in 10.0 mi SSW 8.1 mph - N/A   Clear
6:34 PM 60.8 °F - 41.0 °F 48% 30.06 in 10.0 mi SSW 8.1 mph - N/A   Clear
6:54 PM 59.0 °F - 41.0 °F 51% 30.06 in 10.0 mi SSW 4.6 mph - N/A   Clear
7:13 PM 57.2 °F - 41.0 °F 55% 30.06 in 10.0 mi SSW 3.5 mph - N/A   Clear
7:34 PM 55.4 °F - 41.0 °F 58% 30.06 in 10.0 mi South 4.6 mph - N/A   Clear
7:54 PM 55.4 °F - 41.0 °F 58% 30.06 in 10.0 mi South 3.5 mph - N/A   Clear
8:13 PM 53.6 °F - 41.0 °F 62% 30.06 in 10.0 mi SW 3.5 mph - N/A   Clear
8:33 PM 53.6 °F - 41.0 °F 62% 30.06 in 10.0 mi Calm Calm - N/A   Clear
8:53 PM 50.0 °F - 39.2 °F 66% 30.06 in 10.0 mi Calm Calm - N/A   Clear
9:14 PM 48.2 °F - 39.2 °F 71% 30.06 in 10.0 mi Calm Calm - N/A   Clear
9:34 PM 46.4 °F - 39.2 °F 76% 30.06 in 10.0 mi Calm Calm - N/A   Clear
9:54 PM 44.6 °F - 37.4 °F 76% 30.07 in 10.0 mi Calm Calm - N/A   Clear
10:13 PM 42.8 °F 40.1 °F 37.4 °F 81% 30.07 in 10.0 mi WNW 4.6 mph - N/A   Clear
10:33 PM 44.6 °F 43.1 °F 39.2 °F 81% 30.07 in 10.0 mi West 3.5 mph - N/A   Clear
10:54 PM 41.0 °F - 35.6 °F 81% 30.07 in 10.0 mi Calm Calm - N/A   Clear
11:14 PM 39.2 °F 37.0 °F 33.8 °F 81% 30.07 in 10.0 mi WNW 3.5 mph - N/A   Clear
11:33 PM 39.2 °F 35.9 °F 33.8 °F 81% 30.07 in 10.0 mi West 4.6 mph - N/A   Clear
11:54 PM 37.4 °F 34.9 °F 33.8 °F 87% 30.07 in 10.0 mi West 3.5 mph - N/A   Clear